Regional Weather Roundup
Issued by NWS

Home | Current Version | Previous Version | Graphics & Text | Print | Product List | Glossary On
Versions: 1 2 3 4 5 6 7 8 9 10 11 12 13 14 15 16 17 18 19 20 21 22 23 24 25 26 27 28 29 30 31 32 33 34 35 36 37 38 39 40 41 42 43 44 45 46 47 48 49 50
000
ASUS43 KTOP 221359
RWRKS

WEATHER ROUNDUP FOR KANSAS
NATIONAL WEATHER SERVICE GOODLAND KS
900 AM CDT SUN OCT 22 2017

NOTE:  "FAIR" INDICATES FEW OR NO CLOUDS BELOW 12,000 FEET WITH NO
SIGNIFICANT WEATHER AND/OR OBSTRUCTIONS TO VISIBILITY.

KSZ001>006-013>018-027>032-041>047-221500-
NORTHWEST KANSAS

CITY           SKY/WX    TMP DP  RH WIND       PRES   REMARKS
GOODLAND       CLEAR     39  21  48 SW13      30.21R WCI  31
HAYS           SUNNY     36  30  79 W7        30.18R
HILL CITY      SUNNY     37  28  70 W8        30.19R
RUSSELL        SUNNY     36  33  89 SW6       30.16R
$$

KSZ061>065-074>080-084>089-221500-
SOUTHWEST KANSAS

CITY           SKY/WX    TMP DP  RH WIND       PRES   REMARKS
DODGE CITY     SUNNY     39  26  59 W3        30.22R
ELKHART          N/A     37  22  54 W5          N/A
GARDEN CITY    SUNNY     33  24  69 W8        30.24R
GREAT BEND     SUNNY     38  32  79 W7        30.20R
LIBERAL        SUNNY     37  26  64 W6        30.26R
$$

KSZ066>073-081>083-090>101-221500-
SOUTHEAST KANSAS

CITY           SKY/WX    TMP DP  RH WIND       PRES   REMARKS
CHANUTE        SUNNY     51  46  83 NW8       30.13R
COFFEYVILLE    SUNNY     52  48  86 NW8       30.13R
HUTCHINSON     SUNNY     45  40  82 W3        30.18R
MEDICINE LODGE   N/A     42  38  85 W5        30.21R
NEWTON         SUNNY     45  40  82 NW7       30.18R
PARSONS        MOSUNNY   51  47  86 NW9       30.14R
WICHITA INTL   MOSUNNY   49  42  77 NW7       30.18R
WICHITA JABRA  SUNNY     47  43  86 W8        30.17R
WICHITA MCCONL SUNNY     48  40  73 NW7       30.18R
WINFIELD       SUNNY     49  46  90 NW9       30.19R
$$

KSZ007>012-019>026-033>040-048>060-102>105-221500-
NORTHEAST KANSAS

CITY           SKY/WX    TMP DP  RH WIND       PRES   REMARKS
CONCORDIA      SUNNY     44  38  79 W5        30.16R
EMPORIA        SUNNY     47  42  83 W6        30.15R
LAWRENCE       SUNNY     49  47  93 NW8       30.12R
MANHATTAN      SUNNY     46  43  89 SW3       30.15R
OLATHE IND     MOSUNNY   48  47  96 NW12      30.12R
OLATHE EXE     MOSUNNY   48  46  93 NW12      30.10R
SALINA         SUNNY     46  41  82 CALM      30.18R
TOPEKA BILLARD SUNNY     49  46  90 W6        30.13R
TOPEKA FORBES  SUNNY     51  46  83 NW7       30.13R
$$



USA.gov is the U.S. government's official web portal to all federal, state and local government web resources and services.